{"data":{"norad_id":50828,"intl_designator":"2022-001AB","name":"STARLINK-3290","alt_names":[],"object_type":"PAYLOAD","status":"ACTIVE","operator":null,"country":"US","launch_date":"2022-01-06","launch_site_code":"AFETR","launch_vehicle":null,"mission":null,"orbit_class":"UNKNOWN","rcs_meters":null,"size_class":null,"mass_kg":null,"dimensions":null,"purposes":["comms"],"wikipedia_slug":null,"has_3d_model":false,"image_url":null,"decayed_at":null,"tle_current":{"epoch":"2026-05-24T14:08:15.382752Z","epoch_age_seconds":109858,"freshness":"FRESH","line1":"1 50828U 22001AB  26144.58906693 -.00004647  00000+0 -27439-3 0  9991","line2":"2 50828  53.2132 188.2880 0000908  92.8398 267.2698 15.08803416241713","mean_motion":15.08803416,"eccentricity":9.08e-5,"inclination_deg":53.2132,"raan_deg":188.288,"arg_perigee_deg":92.8398,"mean_anomaly_deg":267.2698,"bstar":-0.00027439,"rev_number":24171,"period_min":95.43986875491,"perigee_km":539.2270601829,"apogee_km":540.48336756894,"semimajor_km":6917.9922138759,"source":"CELESTRAK","updated_at":"2026-05-25T13:38:16.879090Z"}}}